DW5033 Weather Reports


time (UTC)temp
F
wind
direction
speed
knots
gust
knots
rain 1hr
in
rain 24hr
in
rain mn
in
humidity
%
barometer
mb
20260510220535 85 301 3.5 7.0 0.00 0.05 0.01 75 1013.0
20260510220035 85 338 2.6 7.0 0.00 0.05 0.01 75 1012.9
20260510215533 85 291 2.6 7.0 0.00 0.05 0.01 75 1012.9
20260510215029 85 309 2.6 7.0 0.00 0.05 0.01 75 1013.0
20260510214549 85 335 2.6 7.0 0.00 0.05 0.01 74 1012.9
20260510214025 86 255 3.5 7.0 0.00 0.05 0.01 74 1012.9
20260510213544 86 350 4.3 7.0 0.00 0.05 0.01 73 1013.0
20260510213024 86 292 2.6 6.1 0.00 0.05 0.01 74 1013.0
20260510212523 86 270 3.5 9.6 0.00 0.05 0.01 73 1013.0
20260510212040 86 275 3.5 9.6 0.00 0.05 0.01 73 1013.1
20260510211540 86 322 2.6 9.6 0.00 0.05 0.01 74 1013.1
20260510211038 87 347 4.3 8.7 0.00 0.05 0.01 73 1013.1
20260510210537 87 319 2.6 8.7 0.00 0.05 0.01 72 1013.1
20260510210035 87 277 3.5 8.7 0.00 0.05 0.01 72 1013.1
20260510205532 87 232 2.6 9.6 0.00 0.05 0.01 71 1013.1
20260510205029 87 274 3.5 9.6 0.00 0.05 0.01 72 1013.0
20260510204530 87 306 5.2 9.6 0.00 0.05 0.01 71 1013.0
20260510204031 87 281 4.3 9.6 0.00 0.05 0.01 71 1013.0
20260510203529 87 232 5.2 9.6 0.00 0.05 0.01 71 1013.1
20260510203030 87 254 5.2 9.6 0.00 0.05 0.01 70 1013.1
20260510202548 87 298 5.2 10.4 0.00 0.05 0.01 70 1013.0
20260510202025 87 329 2.6 10.4 0.00 0.05 0.01 70 1013.0
20260510201525 88 285 4.3 11.3 0.00 0.05 0.01 70 1012.9
20260510201042 88 282 5.2 11.3 0.00 0.05 0.01 69 1012.9
20260510200605 88 300 3.5 13.0 0.00 0.05 0.01 69 1012.9
20260510200023 88 309 6.1 13.0 0.00 0.05 0.01 68 1012.9
20260510195540 88 307 2.6 10.4 0.00 0.05 0.01 68 1013.0
20260510195038 89 313 4.3 8.7 0.00 0.05 0.01 68 1013.0
20260510194537 89 248 4.3 11.3 0.00 0.05 0.01 68 1012.9
20260510194032 89 5 7.0 11.3 0.00 0.05 0.01 67 1012.9
20260510193531 89 240 4.3 10.4 0.00 0.05 0.01 66 1012.9
20260510193053 90 300 4.3 8.7 0.00 0.05 0.01 66 1013.0
20260510192529 90 312 1.7 9.6 0.00 0.05 0.01 66 1013.0
20260510192026 89 302 4.3 11.3 0.00 0.05 0.01 66 1013.0
20260510191526 90 281 4.3 10.4 0.00 0.05 0.01 65 1013.1
20260510191025 90 294 5.2 9.6 0.00 0.05 0.01 66 1013.0
20260510190525 90 277 3.5 9.6 0.00 0.05 0.01 65 1013.0
20260510190024 90 252 5.2 11.3 0.00 0.05 0.01 65 1013.1
20260510185543 90 280 5.2 11.3 0.00 0.05 0.01 64 1013.1
20260510185039 90 246 5.2 10.4 0.00 0.05 0.01 65 1013.2
20260510184539 89 167 5.2 12.2 0.00 0.05 0.01 65 1013.2
20260510184056 89 255 5.2 12.2 0.00 0.05 0.01 65 1013.2
20260510183533 90 253 3.5 11.3 0.00 0.05 0.01 65 1013.1
20260510183029 90 273 4.3 9.6 0.00 0.05 0.01 66 1013.2
20260510182528 89 215 2.6 9.6 0.00 0.05 0.01 66 1013.2
20260510182046 89 161 1.7 7.0 0.00 0.05 0.01 67 1013.4
20260510181523 89 248 3.5 7.0 0.00 0.05 0.01 67 1013.3
20260510181039 89 226 1.7 7.8 0.00 0.05 0.01 67 1013.5
20260510180540 89 246 4.3 7.8 0.00 0.05 0.01 67 1013.4
20260510180040 89 281 1.7 8.7 0.00 0.05 0.01 67 1013.4
20260510175536 89 218 4.3 7.8 0.00 0.05 0.01 67 1013.5
20260510175033 89 241 2.6 8.7 0.00 0.05 0.01 68 1013.5
20260510174533 90 200 2.6 8.7 0.00 0.05 0.01 68 1013.5
20260510174031 90 286 2.6 8.7 0.00 0.05 0.01 68 1013.5
20260510173526 89 161 4.3 8.7 0.00 0.05 0.01 68 1013.7
20260510173028 89 218 4.3 8.7 0.00 0.05 0.01 67 1013.7
20260510172525 90 246 3.5 11.3 0.00 0.05 0.01 68 1013.8
20260510172040 90 231 4.3 11.3 0.00 0.05 0.01 68 1013.8
20260510171539 90 221 2.6 8.7 0.00 0.05 0.01 67 1013.8
20260510170538 89 221 4.3 9.6 0.00 0.05 0.01 68 1014.0
20260510170037 89 207 3.5 7.8 0.00 0.05 0.01 69 1014.0
20260510165536 89 182 2.6 7.0 0.00 0.05 0.01 70 1014.0
20260510165038 89 188 3.5 7.0 0.00 0.05 0.01 69 1014.0
20260510164540 89 226 1.7 7.0 0.00 0.05 0.01 69 1014.2
20260510164058 88 250 2.6 8.7 0.00 0.05 0.01 71 1014.2
20260510163535 88 269 2.6 8.7 0.00 0.05 0.01 71 1014.1
20260510163102 88 193 1.7 8.7 0.00 0.05 0.01 71 1014.1
20260510162538 88 118 4.3 8.7 0.00 0.05 0.01 72 1014.1
20260510162056 87 200 4.3 10.4 0.00 0.05 0.01 72 1014.2
20260510161551 87 157 4.3 10.4 0.00 0.05 0.01 72 1014.2
20260510161028 87 171 3.5 8.7 0.00 0.05 0.01 74 1014.2
20260510160527 87 121 3.5 8.7 0.00 0.05 0.01 71 1014.3
20260510160027 87 122 4.3 9.6 0.00 0.05 0.01 73 1014.4
20260510155542 87 204 4.3 9.6 0.00 0.05 0.01 74 1014.4
20260510155039 86 146 3.5 6.1 0.00 0.05 0.01 75 1014.3
20260510154556 86 219 2.6 8.7 0.00 0.05 0.01 76 1014.4
20260510154032 86 191 2.6 5.2 0.00 0.05 0.01 75 1014.3
20260510153551 86 288 2.6 7.8 0.00 0.05 0.01 75 1014.3
20260510153031 85 211 3.5 8.7 0.00 0.05 0.01 75 1014.3
20260510152526 86 101 3.5 7.8 0.00 0.05 0.01 76 1014.2
20260510152041 86 148 1.7 7.8 0.00 0.05 0.01 75 1014.2
20260510151543 86 98 2.6 8.7 0.00 0.05 0.01 75 1014.2
20260510151103 85 156 3.5 10.4 0.00 0.05 0.01 76 1014.2
20260510150539 85 181 2.6 10.4 0.00 0.05 0.01 77 1014.3
20260510150039 85 227 4.3 7.8 0.00 0.05 0.01 76 1014.3
20260510145536 85 224 1.7 7.8 0.00 0.05 0.01 77 1014.3
20260510145034 84 137 4.3 7.8 0.00 0.05 0.01 77 1014.3
20260510144535 84 156 4.3 7.8 0.00 0.05 0.01 77 1014.3
20260510144031 84 172 1.7 5.2 0.00 0.05 0.01 79 1014.4
20260510143529 84 273 1.7 5.2 0.00 0.05 0.01 79 1014.4
20260510143031 84 208 3.5 7.8 0.00 0.05 0.01 78 1014.3
20260510142528 84 82 3.5 7.8 0.00 0.05 0.01 79 1014.3
20260510142025 83 145 1.7 6.1 0.00 0.05 0.01 80 1014.3
20260510141524 83 175 1.7 5.2 0.00 0.05 0.01 80 1014.3
20260510141041 83 105 2.6 6.1 0.00 0.05 0.01 80 1014.2
20260510140604 83 196 3.5 6.1 0.00 0.05 0.01 79 1014.2
20260510140042 83 246 3.5 5.2 0.00 0.05 0.01 80 1014.1
20260510135541 82 195 2.6 7.0 0.00 0.05 0.01 82 1014.0
20260510135040 82 176 2.6 7.0 0.00 0.05 0.01 82 1013.8
20260510134540 81 139 4.3 7.8 0.00 0.05 0.01 82 1013.8
20260510134056 81 115 4.3 7.0 0.00 0.05 0.01 82 1013.8
20260510133538 81 102 5.2 7.8 0.00 0.05 0.01 82 1013.7
20260510133036 81 128 4.3 7.8 0.00 0.05 0.01 83 1013.8
20260510132534 80 126 3.5 8.7 0.00 0.05 0.01 83 1013.8
20260510132033 80 123 2.6 8.7 0.00 0.05 0.01 84 1013.8
20260510131531 80 155 3.5 7.0 0.00 0.05 0.01 84 1013.9
20260510131030 79 118 4.3 8.7 0.00 0.05 0.01 85 1013.8
20260510130531 79 124 5.2 8.7 0.00 0.05 0.01 85 1013.8
20260510130029 79 102 4.3 7.8 0.00 0.05 0.01 85 1013.6
20260510125525 78 125 4.3 7.0 0.00 0.05 0.01 86 1013.6
20260510125042 78 132 5.2 7.0 0.00 0.05 0.01 86 1013.6
20260510124541 78 117 3.5 6.1 0.00 0.05 0.01 87 1013.6
20260510124058 78 153 3.5 6.1 0.00 0.05 0.01 88 1013.5
20260510123554 77 115 2.6 5.2 0.00 0.05 0.01 88 1013.5
20260510123030 77 127 1.7 5.2 0.00 0.05 0.01 88 1013.6
20260510122528 77 120 1.7 5.2 0.00 0.05 0.01 88 1013.4
20260510122023 77 138 3.5 6.1 0.00 0.05 0.01 88 1013.5
20260510121539 77 125 2.6 6.1 0.00 0.05 0.01 89 1013.4
20260510121033 77 117 2.6 6.1 0.00 0.05 0.01 89 1013.4
20260510120532 77 125 2.6 3.5 0.00 0.05 0.01 89 1013.3
20260510120031 77 128 1.7 2.6 0.00 0.05 0.01 89 1013.3
20260510115549 76 125 1.7 5.2 0.00 0.05 0.01 89 1013.3
20260510115047 76 123 2.6 5.2 0.00 0.05 0.01 89 1013.2
20260510114527 76 136 2.6 3.5 0.00 0.05 0.01 89 1013.1
20260510114023 76 145 1.7 2.6 0.00 0.05 0.01 89 1013.0
20260510113543 76 145 0.9 1.7 0.00 0.05 0.01 89 1012.9
20260510113042 76 151 0.0 0.9 0.00 0.05 0.01 89 1012.8
20260510112541 76 151 0.0 1.7 0.00 0.05 0.01 89 1012.7
20260510112038 76 151 0.9 2.6 0.00 0.05 0.01 89 1012.6
20260510111541 76 190 0.0 2.6 0.00 0.05 0.01 89 1012.5
20260510111102 76 132 1.7 2.6 0.00 0.05 0.01 89 1012.5
20260510110540 76 132 0.9 2.6 0.00 0.05 0.01 89 1012.4
20260510110037 76 122 0.9 2.6 0.00 0.05 0.01 89 1012.4
20260510105535 76 122 0.9 2.6 0.00 0.05 0.01 89 1012.3
20260510105031 76 122 0.9 2.6 0.00 0.05 0.01 89 1012.2
20260510104532 76 122 1.7 2.6 0.00 0.05 0.01 89 1012.1
20260510104049 76 122 1.7 2.6 0.00 0.05 0.01 89 1012.0
20260510103528 76 121 0.9 3.5 0.00 0.05 0.01 89 1011.9
20260510103028 76 121 2.6 3.5 0.00 0.05 0.01 89 1011.8
20260510102526 76 121 1.7 5.2 0.00 0.05 0.01 89 1011.7
20260510102023 76 114 2.6 5.2 0.00 0.05 0.01 89 1011.6
20260510101543 76 132 1.7 4.3 0.00 0.05 0.01 90 1011.4
20260510101041 76 122 2.6 6.1 0.00 0.05 0.01 89 1011.4
20260510100539 76 118 3.5 6.1 0.00 0.05 0.01 89 1011.3
20260510095537 76 132 4.3 6.1 0.00 0.05 0.01 89 1011.2
20260510095034 76 118 3.5 5.2 0.00 0.05 0.01 89 1011.2
20260510094537 76 123 2.6 5.2 0.00 0.05 0.01 89 1011.3
20260510094034 76 123 2.6 5.2 0.00 0.05 0.01 89 1011.2
20260510093555 76 128 3.5 5.2 0.00 0.05 0.01 89 1011.2
20260510093034 76 126 3.5 5.2 0.00 0.05 0.01 89 1011.1
20260510092551 76 131 1.7 5.2 0.00 0.05 0.01 89 1011.1
20260510092027 76 128 2.6 5.2 0.00 0.05 0.01 89 1011.1
20260510091526 76 130 3.5 7.0 0.00 0.05 0.01 89 1011.0
20260510091024 76 146 3.5 7.0 0.00 0.05 0.01 89 1010.8
20260510090542 76 126 2.6 7.0 0.00 0.05 0.01 89 1010.7
20260510090042 76 119 3.5 6.1 0.00 0.05 0.01 89 1010.8
20260510085539 76 121 3.5 7.0 0.00 0.05 0.01 90 1010.7
20260510085036 76 136 4.3 7.0 0.00 0.05 0.01 90 1010.6
20260510084532 76 132 4.3 6.1 0.00 0.05 0.01 90 1010.5
20260510084028 76 130 1.7 7.0 0.00 0.05 0.01 90 1010.5
20260510083527 76 125 4.3 7.0 0.00 0.05 0.01 90 1010.5
20260510083026 76 122 5.2 7.0 0.00 0.05 0.01 90 1010.6
20260510082523 76 119 1.7 5.2 0.00 0.05 0.01 90 1010.6
20260510082035 76 122 3.5 7.0 0.00 0.05 0.01 90 1010.6
20260510081601 76 126 4.3 7.0 0.00 0.05 0.01 90 1010.7
20260510081038 76 125 2.6 5.2 0.00 0.05 0.01 90 1010.8
20260510080538 76 124 2.6 3.5 0.00 0.05 0.01 90 1010.9
20260510080037 76 125 1.7 3.5 0.00 0.05 0.01 90 1011.0
20260510075534 76 124 0.9 3.5 0.00 0.05 0.01 90 1010.9
20260510075032 76 124 0.9 5.2 0.00 0.05 0.01 90 1010.9
20260510074532 76 124 1.7 5.2 0.00 0.05 0.01 90 1010.9
20260510074050 76 126 2.6 5.2 0.00 0.05 0.01 90 1010.8
20260510073528 76 128 3.5 4.3 0.00 0.05 0.01 90 1010.7
20260510073026 77 126 3.5 5.2 0.00 0.05 0.01 90 1010.7
20260510072525 77 109 2.6 6.1 0.00 0.05 0.01 90 1010.8
20260510072042 77 109 3.5 6.1 0.00 0.05 0.01 90 1010.9
20260510071542 77 103 3.5 6.1 0.00 0.05 0.01 90 1011.0
20260510071042 77 112 3.5 6.1 0.00 0.05 0.01 90 1011.1
20260510070539 77 105 2.6 5.2 0.00 0.05 0.01 90 1011.2
20260510070038 77 105 3.5 5.2 0.00 0.05 0.01 90 1011.2
20260510065533 77 117 3.5 5.2 0.00 0.05 0.01 90 1011.1
20260510065030 78 121 1.7 2.6 0.00 0.05 0.01 90 1011.3
20260510064549 78 121 0.9 2.6 0.00 0.05 0.01 90 1011.3
20260510064024 78 121 1.7 2.6 0.00 0.05 0.01 90 1011.3
20260510063543 78 121 1.7 3.5 0.00 0.05 0.01 90 1011.3
20260510063042 78 121 2.6 4.3 0.00 0.05 0.01 90 1011.2
20260510062539 78 126 2.6 4.3 0.00 0.05 0.01 90 1011.4
20260510062102 78 131 0.0 0.9 0.00 0.05 0.01 90 1011.5
20260510061542 78 130 0.0 0.9 0.00 0.05 0.01 90 1011.7
20260510061040 78 130 0.0 0.9 0.00 0.05 0.01 90 1011.6
20260510060538 78 130 0.0 0.9 0.00 0.05 0.01 90 1011.7
20260510060056 78 136 0.0 0.0 0.00 0.05 0.01 90 1011.8
20260510055534 79 132 0.0 0.0 0.00 0.05 0.01 90 1011.9
20260510055052 79 170 0.0 0.0 0.01 0.05 0.01 90 1012.0
20260510054531 78 171 0.0 0.0 0.01 0.05 0.01 90 1012.1
20260510054030 78 171 0.0 0.0 0.01 0.05 0.01 90 1012.1
20260510053530 78 171 0.0 0.0 0.01 0.05 0.01 90 1012.2
20260510053030 79 171 0.0 0.0 0.01 0.05 0.01 90 1012.2
20260510052548 79 171 0.0 0.0 0.01 0.05 0.01 90 1012.2
20260510052026 79 171 0.0 0.0 0.01 0.05 0.01 90 1012.2
20260510051525 79 173 0.0 0.0 0.01 0.05 0.01 90 1012.2
20260510051023 79 182 0.0 0.0 0.01 0.05 0.01 90 1012.3
20260510050541 79 269 0.0 0.0 0.01 0.05 0.01 90 1012.3
20260510050039 79 269 0.0 0.0 0.01 0.05 0.01 90 1012.4
20260510045536 79 269 0.0 0.0 0.00 0.04 0.00 90 1012.4
20260510045054 79 269 0.0 0.0 0.00 0.04 0.00 90 1012.5
20260510044531 79 269 0.0 0.0 0.00 0.04 0.00 90 1012.5
20260510044028 79 269 0.0 0.0 0.00 0.04 0.00 90 1012.6
20260510043526 79 269 0.0 0.0 0.00 0.04 0.00 90 1012.5
20260510043033 79 269 0.0 0.0 0.00 0.04 0.00 90 1012.5
20260510042537 79 269 0.0 0.0 0.00 0.04 0.00 90 1012.4
20260510042034 79 269 0.0 0.0 0.00 0.04 0.00 89 1012.5
20260510041600 79 269 0.0 0.0 0.00 0.04 0.00 89 1012.6
20260510041036 79 269 0.0 0.0 0.00 0.04 0.00 89 1012.5
20260510040535 79 269 0.0 0.0 0.00 0.04 0.00 89 1012.5
20260510040035 79 269 0.0 0.0 0.00 0.04 0.00 89 1012.4
20260510035531 79 269 0.0 0.0 0.00 0.04 0.00 89 1012.5
20260510035026 79 269 0.0 0.0 0.00 0.04 0.00 89 1012.4
20260510034525 79 269 0.0 0.0 0.00 0.04 0.00 90 1012.4
20260510034040 79 269 0.0 0.0 0.00 0.04 0.00 89 1012.3
20260510033540 79 269 0.0 0.0 0.00 0.04 0.00 89 1012.3
20260510033036 79 269 0.0 0.0 0.00 0.04 0.04 89 1012.1
20260510032559 79 269 0.0 0.0 0.00 0.04 0.04 89 1012.1
20260510032036 79 284 0.0 0.0 0.00 0.04 0.04 89 1012.2
20260510031535 79 284 0.0 0.0 0.00 0.04 0.04 89 1012.2
20260510031033 79 284 0.0 0.0 0.00 0.04 0.04 89 1012.3
20260510030531 79 284 0.0 0.0 0.00 0.04 0.04 89 1012.2
20260510030048 79 284 0.0 0.0 0.00 0.04 0.04 89 1012.1
20260510025524 79 284 0.0 0.0 0.00 0.04 0.04 89 1012.2
20260510025043 79 284 0.0 0.0 0.00 0.04 0.04 88 1012.2
20260510024540 79 284 0.0 0.0 0.02 0.04 0.04 88 1012.2
20260510024057 79 284 0.0 0.0 0.03 0.04 0.04 88 1012.1
20260510023534 79 284 0.0 0.0 0.04 0.04 0.04 88 1012.1
20260510023032 79 284 0.0 0.0 0.04 0.04 0.04 87 1012.0
20260510022548 79 284 0.0 0.0 0.04 0.04 0.04 87 1012.0
20260510022026 79 284 0.0 0.0 0.04 0.04 0.04 86 1011.9
20260510021526 79 284 0.0 0.0 0.04 0.04 0.04 86 1011.9
20260510021025 80 284 0.0 0.0 0.04 0.04 0.04 86 1011.9
20260510020543 80 284 0.0 0.0 0.04 0.04 0.04 86 1012.0
20260510020042 80 284 0.0 0.0 0.04 0.04 0.04 85 1011.9
20260510015538 80 284 0.0 0.0 0.04 0.04 0.04 84 1012.0
20260510015036 80 284 0.0 0.0 0.04 0.04 0.04 84 1011.8
20260510014538 81 284 0.0 0.0 0.02 0.02 0.02 84 1011.8
20260510014101 81 284 0.0 0.9 0.01 0.01 0.01 83 1011.8
20260510013540 81 284 0.0 0.9 0.00 0.00 0.00 82 1011.8
20260510013038 81 290 0.0 0.0 0.00 0.00 0.00 82 1011.8
20260510012537 81 290 0.0 0.0 0.00 0.00 0.00 82 1011.7
20260510012035 81 333 0.0 0.0 0.00 0.00 0.00 81 1011.6
20260510011534 81 333 0.0 0.0 0.00 0.00 0.00 81 1011.4
20260510011030 81 333 0.0 0.0 0.00 0.00 0.00 81 1011.4
20260510010528 81 333 0.0 0.0 0.00 0.00 0.00 80 1011.2
20260510010028 81 333 0.0 0.0 0.00 0.00 0.00 80 1011.2
20260510005547 82 323 0.0 0.0 0.00 0.00 0.00 80 1011.2
20260510005025 82 317 0.0 0.0 0.00 0.00 0.00 80 1011.2
20260510004526 82 301 0.0 0.0 0.00 0.00 0.00 79 1011.1
20260510004024 82 298 0.0 0.0 0.00 0.00 0.00 79 1011.1
20260510003543 82 298 0.0 0.9 0.00 0.00 0.00 79 1011.0
20260510003039 82 298 0.0 3.5 0.00 0.00 0.00 79 1011.0
20260510002556 82 298 2.6 3.5 0.00 0.00 0.00 79 1010.9
20260510002032 82 265 1.7 3.5 0.00 0.00 0.00 78 1010.8
20260510001530 82 273 1.7 3.5 0.00 0.00 0.00 78 1010.8
20260510001028 82 273 1.7 3.5 0.00 0.00 0.00 78 1010.5
20260510000528 82 271 1.7 3.5 0.00 0.00 0.00 78 1010.5
20260510000026 82 265 1.7 4.3 0.00 0.00 0.00 77 1010.5
20260509235538 83 260 0.9 4.3 0.00 0.00 0.00 77 1010.3
20260509235056 83 267 2.6 5.2 0.00 0.00 0.00 76 1010.4
20260509234554 83 303 0.9 6.1 0.00 0.00 0.00 76 1010.3
20260509234029 83 261 2.6 6.1 0.00 0.00 0.00 75 1010.3
20260509233529 83 280 2.6 6.1 0.00 0.00 0.00 75 1010.3
20260509233028 83 290 3.5 7.0 0.00 0.00 0.00 74 1010.3
20260509232526 84 269 3.5 7.0 0.00 0.00 0.00 73 1010.3
20260509232045 84 303 3.5 7.0 0.00 0.00 0.00 72 1010.2
20260509231543 84 289 2.6 7.0 0.00 0.00 0.00 71 1010.1
20260509231040 84 271 4.3 7.8 0.00 0.00 0.00 70 1010.1
20260509230535 85 271 3.5 8.7 0.00 0.00 0.00 69 1010.1
20260509230036 85 265 2.6 8.7 0.00 0.00 0.00 68 1010.1
20260509225530 85 274 2.6 8.7 0.00 0.00 0.00 68 1010.1
20260509225027 85 273 3.5 7.0 0.00 0.00 0.00 67 1010.1
20260509224524 85 237 3.5 7.0 0.00 0.00 0.00 67 1010.0
20260509224041 86 267 0.9 7.0 0.00 0.00 0.00 66 1009.9
20260509223537 86 284 3.5 7.8 0.00 0.00 0.00 65 1009.9
20260509223037 86 264 3.5 8.7 0.00 0.00 0.00 64 1009.9
20260509222552 87 309 3.5 8.7 0.00 0.00 0.00 64 1009.8
20260509222048 87 282 2.6 9.6 0.00 0.00 0.00 63 1009.8
20260509221527 87 280 4.3 8.7 0.00 0.00 0.00 62 1009.7
20260509221046 88 213 4.3 8.7 0.00 0.00 0.00 61 1009.7